Location: Gudip?du
(17.0263°N, 80.8301°E)
Time: 02:38:49
(UTC+00:00)

ATLAS 3B R/B - Pass Details

Date: 03 August 2024
Orbit: 940 x 1254 km, 63.8° (Epoch: 12 September)

Event Time Altitude Azimuth Distance (km) Brightness Sun altitude
Rises 22:03:58 0° 348° (NNW) 4,193 6.0 -29.8°
Reaches altitude 10° 22:07:06 10° 357° (N) 3,214 5.5 -29.2°
Maximum altitude 22:14:06 36° 61° (ENE) 1,824 4.4 -27.7°
Drops below altitude 10° 22:20:47 10° 125° (SE) 3,071 5.4 -26.4°
Sets 22:23:41 0° 134° (SE) 3,986 5.9 -25.8°
